Montgomery, AL

8:49 AM CDT on May 28, 2017 (GMT -0500)
Montgomery Regional

Weather History for KMGM - April, 2013

Change the Weather History Date:

Friday, April 5, 2013

  Actual Average Record
Temperature  
Mean Temperature 59 °F 62 °F  
Max Temperature 70 °F 74 °F 91 °F (1988)
Min Temperature 47 °F 49 °F 31 °F (1891)
Degree Days  
Heating Degree Days 6 5  
Month to date heating degree days 27 25  
Since 1 July heating degree days 1875 2152  
Cooling Degree Days 0 2  
Month to date cooling degree days 1 6  
Year to date cooling degree days 34 35  
Growing Degree Days 8 (Base 50)    
Moisture  
Dew Point 44 °F    
Average Humidity 65    
Maximum Humidity 93    
Minimum Humidity 37    
Precipitation  
Precipitation 0.04 in 0.15 in 2.29 in (1898)
Month to date precipitation 0.18 0.81  
Year to date precipitation 20.32 16.69  
Snow  
Snow 0.00 in 0.00 in - ()
Month to date snowfall 0.0 0.0  
Since 1 July snowfall 0.0 0.4  
Snow Depth 0.00 in    
Sea Level Pressure  
Sea Level Pressure 30.03 in    
Wind  
Wind Speed 6 mph (NNW)    
Max Wind Speed 18 mph    
Max Gust Speed 22 mph    
Visibility 10 miles    
Events Rain    
T = Trace of Precipitation, MM = Missing Value Source: NWS Daily Summary

Daily Weather History Graph

Daily Weather History Graph

Search for Another Location

Airport or City:

Trip Planner

Search our weather history database for the weather conditions in past years. The results will help you decide how hot, cold, wet, or windy it might be!

Date:

Astronomy

Apr. 05, 2013 Rise Set
Actual Time 6:28 AM CDT 7:08 PM CDT
Civil Twilight 6:03 AM CDT 7:33 PM CDT
Nautical Twilight 5:34 AM CDT 8:02 PM CDT
Astronomical Twilight 5:04 AM CDT 8:32 PM CDT
Moon 3:19 AM CDT (4/5) 2:46 PM CDT (4/5)
Length of Visible Light 13h 29m
Length of Day
12h 40m
Waning Crescent, 23% of the Moon is Illuminated
Apr 5
Waning Crescent
Apr 10
New
Apr 18
First Quarter
Apr 25
Full
May 2
Last Quarter

Hourly Weather History & Observations

Time (CDT) Temp. Windchill Dew Point Humidity Pressure Visibility Wind Dir Wind Speed Gust Speed Precip Events Conditions
12:53 AM 48.9 °F - 46.0 °F 90% 29.95 in 10.0 mi NE 5.8 mph - N/A   Overcast
1:53 AM 48.9 °F - 45.0 °F 86% 29.98 in 10.0 mi North 6.9 mph - N/A   Overcast
2:53 AM 48.0 °F - 46.0 °F 93% 29.97 in 9.0 mi North 6.9 mph - 0.01 in Rain Light Rain
3:53 AM 48.0 °F - 45.0 °F 89% 29.97 in 10.0 mi North 5.8 mph - 0.01 in   Overcast
4:53 AM 46.9 °F - 44.1 °F 90% 29.98 in 10.0 mi North 3.5 mph - 0.02 in Rain Light Rain
5:00 AM 46.4 °F 44.3 °F 44.6 °F 93% 29.98 in 10.0 mi NNW 4.6 mph - 0.00 in   Overcast
5:09 AM 46.4 °F 44.3 °F 44.6 °F 93% 29.99 in 10.0 mi NW 4.6 mph - 0.00 in   Overcast
5:18 AM 46.4 °F 43.5 °F 44.6 °F 93% 29.99 in 10.0 mi NNW 5.8 mph - 0.00 in   Overcast
5:53 AM 46.9 °F - 44.1 °F 90% 30.01 in 10.0 mi NNW 4.6 mph - 0.00 in   Overcast
6:01 AM 46.4 °F 45.2 °F 44.6 °F 93% 30.01 in 10.0 mi NNW 3.5 mph - N/A   Overcast
6:40 AM 46.4 °F 45.2 °F 44.6 °F 93% 30.02 in 10.0 mi North 3.5 mph - N/A   Overcast
6:53 AM 46.9 °F - 45.0 °F 93% 30.02 in 10.0 mi North 3.5 mph - N/A   Overcast
7:11 AM 48.2 °F - 44.6 °F 87% 30.03 in 10.0 mi NNW 4.6 mph - N/A   Overcast
7:53 AM 48.0 °F - 45.0 °F 89% 30.04 in 10.0 mi North 4.6 mph - N/A   Overcast
8:25 AM 48.2 °F - 44.6 °F 87% 30.05 in 10.0 mi NNW 9.2 mph - N/A   Overcast
8:53 AM 50.0 °F - 44.1 °F 80% 30.06 in 10.0 mi North 9.2 mph - N/A   Overcast
9:53 AM 53.1 °F - 45.0 °F 74% 30.07 in 10.0 mi North 6.9 mph - N/A   Overcast
10:53 AM 53.1 °F - 44.1 °F 71% 30.09 in 10.0 mi North 10.4 mph - N/A   Overcast
11:53 AM 55.9 °F - 44.1 °F 64% 30.09 in 10.0 mi North 11.5 mph 21.9 mph N/A   Overcast
12:53 PM 61.0 °F - 45.0 °F 56% 30.07 in 10.0 mi NNE 12.7 mph - N/A   Mostly Cloudy
1:53 PM 64.9 °F - 45.0 °F 48% 30.04 in 10.0 mi NNW 13.8 mph 18.4 mph N/A   Mostly Cloudy
2:00 PM 66.2 °F - 44.6 °F 46% 30.04 in 10.0 mi NNE 10.4 mph 18.4 mph N/A   Mostly Cloudy
2:53 PM 66.9 °F - 45.0 °F 45% 30.03 in 10.0 mi North 10.4 mph - N/A   Scattered Clouds
3:53 PM 69.1 °F - 43.0 °F 39% 30.01 in 10.0 mi NW 9.2 mph - N/A   Partly Cloudy
4:53 PM 70.0 °F - 42.1 °F 36% 30.01 in 10.0 mi NNW 8.1 mph - N/A   Partly Cloudy
5:53 PM 69.1 °F - 42.1 °F 38% 30.02 in 10.0 mi NW 11.5 mph - N/A   Clear
6:53 PM 64.9 °F - 42.1 °F 43% 30.03 in 10.0 mi NW 6.9 mph - N/A   Clear
7:53 PM 61.0 °F - 39.9 °F 46% 30.05 in 10.0 mi Calm Calm - N/A   Clear
8:53 PM 57.9 °F - 41.0 °F 53% 30.07 in 10.0 mi NW 3.5 mph - N/A   Clear
9:53 PM 55.0 °F - 41.0 °F 59% 30.09 in 10.0 mi Calm Calm - N/A   Clear
10:53 PM 52.0 °F - 42.1 °F 69% 30.11 in 10.0 mi WNW 4.6 mph - N/A   Clear
11:53 PM 53.1 °F - 41.0 °F 64% 30.12 in 10.0 mi Calm Calm - N/A   Clear